Location: Heilbronn
(49.1548°N, 9.2780°E)
Time: 17:02:00
(UTC+01:00)

ISS - Pass Details

Date: 23 March 2017
Orbit: 399 x 409 km, 51.6° (Epoch: 25 March)

Event Time Altitude Azimuth Distance (km) Brightness Sun altitude
Exits shadow 04:30:08 18° 168° (SSE) 1,092 -1.8 -18.1°
Drops below altitude 10° 04:31:16 10° 155° (SSE) 1,468 -1.0 -18.0°
Sets 04:33:31 0° 143° (SE) 2,326 0.2 -17.6°
